Precipitable_Water
0.78 0.71 0.69 0.60 0.57 0.62 0.67 0.68 0.67 0.65 0.64 0.61 0.59 0.57 0.58 0.58 0.61 0.64 0.61 0.56 0.54 0.58 0.61 0.58 0.55 0.52 0.49 0.46 0.46 0.47 0.48 0.49 0.59 0.73 0.81 0.86 0.91 1.02 1.13 1.20 1.29 1.38 1.44
0.69 0.65 0.58 0.48 0.48 0.55 0.64 0.66 0.65 0.65 0.64 0.60 0.56 0.55 0.53 0.54 0.59 0.65 0.61 0.55 0.49 0.48 0.48 0.47 0.46 0.46 0.46 0.46 0.45 0.46 0.46 0.47 0.48 0.50 0.64 0.77 0.82 0.88 0.98 1.09 1.17 1.27 1.37
0.63 0.57 0.51 0.40 0.42 0.49 0.58 0.66 0.65 0.62 0.59 0.57 0.53 0.52 0.50 0.50 0.52 0.52 0.56 0.60 0.54 0.49 0.42 0.38 0.39 0.41 0.42 0.43 0.45 0.47 0.47 0.46 0.46 0.47 0.47 0.56 0.71 0.80 0.87 0.93 1.03 1.16 1.24
0.57 0.51 0.42 0.35 0.38 0.43 0.52 0.59 0.59 0.54 0.53 0.52 0.49 0.48 0.47 0.46 0.46 0.48 0.49 0.49 0.49 0.49 0.40 0.31 0.36 0.37 0.38 0.40 0.43 0.47 0.48 0.48 0.46 0.45 0.45 0.45 0.48 0.62 0.76 0.86 0.93 1.01 1.10
0.51 0.47 0.38 0.36 0.37 0.37 0.47 0.54 0.56 0.53 0.50 0.49 0.46 0.45 0.44 0.42 0.41 0.42 0.43 0.43 0.41 0.39 0.37 0.35 0.35 0.34 0.33 0.34 0.37 0.40 0.42 0.43 0.44 0.44 0.45 0.44 0.43 0.44 0.55 0.69 0.81 0.90 1.03
0.43 0.38 0.35 0.35 0.37 0.37 0.42 0.49 0.50 0.52 0.50 0.43 0.40 0.40 0.40 0.41 0.41 0.41 0.38 0.39 0.39 0.36 0.32 0.32 0.38 0.38 0.37 0.36 0.33 0.35 0.40 0.44 0.45 0.45 0.43 0.44 0.42 0.42 0.42 0.47 0.61 0.73 0.86
0.35 0.35 0.34 0.35 0.38 0.38 0.43 0.48 0.49 0.46 0.42 0.40 0.37 0.37 0.39 0.40 0.39 0.37 0.36 0.36 0.33 0.31 0.32 0.32 0.32 0.33 0.39 0.39 0.35 0.30 0.33 0.39 0.42 0.43 0.43 0.43 0.42 0.41 0.41 0.41 0.42 0.53 0.69
0.38 0.39 0.38 0.38 0.42 0.46 0.48 0.46 0.44 0.40 0.40 0.41 0.39 0.37 0.32 0.35 0.38 0.35 0.34 0.33 0.31 0.30 0.31 0.33 0.33 0.33 0.34 0.37 0.37 0.32 0.26 0.30 0.37 0.41 0.42 0.43 0.42 0.41 0.41 0.41 0.41 0.41 0.47
0.45 0.44 0.45 0.45 0.48 0.48 0.46 0.46 0.45 0.42 0.37 0.40 0.46 0.41 0.36 0.34 0.39 0.38 0.35 0.31 0.31 0.31 0.32 0.35 0.34 0.33 0.33 0.35 0.37 0.34 0.24 0.25 0.31 0.37 0.40 0.41 0.42 0.42 0.41 0.40 0.40 0.41 0.40
0.50 0.51 0.50 0.49 0.47 0.47 0.46 0.46 0.46 0.44 0.43 0.38 0.39 0.40 0.42 0.41 0.30 0.32 0.37 0.35 0.33 0.32 0.34 0.33 0.35 0.35 0.33 0.32 0.38 0.33 0.24 0.25 0.28 0.33 0.37 0.38 0.40 0.41 0.39 0.39 0.40 0.39 0.39
0.57 0.54 0.52 0.50 0.48 0.48 0.48 0.47 0.45 0.49 0.48 0.45 0.41 0.39 0.36 0.33 0.30 0.27 0.25 0.34 0.36 0.34 0.35 0.36 0.34 0.32 0.31 0.31 0.32 0.30 0.24 0.25 0.27 0.30 0.35 0.36 0.37 0.37 0.37 0.37 0.38 0.38 0.38
0.61 0.59 0.57 0.54 0.53 0.51 0.50 0.47 0.48 0.50 0.46 0.44 0.44 0.41 0.38 0.34 0.32 0.29 0.27 0.29 0.31 0.36 0.36 0.35 0.35 0.32 0.30 0.30 0.31 0.26 0.23 0.23 0.26 0.29 0.33 0.35 0.35 0.35 0.35 0.35 0.35 0.36 0.36
0.64 0.64 0.63 0.62 0.59 0.57 0.57 0.55 0.53 0.52 0.51 0.47 0.45 0.41 0.41 0.39 0.35 0.34 0.30 0.29 0.30 0.33 0.36 0.37 0.36 0.34 0.30 0.31 0.31 0.24 0.26 0.24 0.23 0.26 0.30 0.33 0.33 0.33 0.32 0.32 0.32 0.32 0.33
0.70 0.71 0.70 0.71 0.69 0.65 0.63 0.61 0.59 0.58 0.59 0.56 0.51 0.49 0.46 0.43 0.39 0.35 0.32 0.31 0.30 0.30 0.34 0.36 0.40 0.35 0.32 0.31 0.29 0.25 0.31 0.27 0.24 0.23 0.27 0.30 0.30 0.30 0.29 0.29 0.30 0.30 0.29
0.74 0.76 0.76 0.76 0.75 0.71 0.68 0.68 0.67 0.67 0.69 0.65 0.60 0.57 0.50 0.50 0.44 0.40 0.36 0.33 0.30 0.27 0.30 0.37 0.37 0.39 0.33 0.32 0.31 0.27 0.28 0.28 0.23 0.24 0.25 0.27 0.27 0.28 0.27 0.27 0.27 0.28 0.28
0.78 0.79 0.79 0.79 0.76 0.74 0.77 0.76 0.69 0.72 0.70 0.69 0.66 0.62 0.56 0.52 0.49 0.43 0.39 0.36 0.34 0.31 0.28 0.36 0.38 0.36 0.34 0.29 0.31 0.27 0.28 0.26 0.29 0.27 0.25 0.24 0.25 0.24 0.25 0.26 0.27 0.27 0.27
0.84 0.81 0.83 0.81 0.78 0.75 0.78 0.77 0.71 0.69 0.71 0.68 0.69 0.65 0.61 0.56 0.50 0.48 0.44 0.40 0.37 0.37 0.33 0.38 0.38 0.39 0.35 0.33 0.31 0.31 0.29 0.27 0.31 0.29 0.26 0.23 0.23 0.24 0.24 0.24 0.25 0.26 0.27
0.88 0.86 0.86 0.84 0.82 0.82 0.87 0.90 0.79 0.80 0.76 0.68 0.70 0.67 0.66 0.61 0.54 0.48 0.45 0.42 0.39 0.39 0.38 0.36 0.42 0.40 0.37 0.36 0.33 0.30 0.29 0.26 0.27 0.31 0.27 0.22 0.22 0.23 0.22 0.22 0.23 0.24 0.25
0.90 0.91 0.87 0.85 0.85 0.89 0.88 0.90 0.86 0.80 0.75 0.74 0.73 0.74 0.68 0.62 0.54 0.49 0.50 0.45 0.42 0.40 0.42 0.41 0.40 0.44 0.39 0.36 0.32 0.30 0.30 0.29 0.29 0.27 0.27 0.25 0.25 0.24 0.22 0.21 0.22 0.25 0.24
0.96 0.93 0.91 0.93 0.94 0.91 0.92 0.90 0.91 0.85 0.89 0.83 0.75 0.73 0.71 0.59 0.58 0.52 0.52 0.46 0.43 0.43 0.43 0.44 0.42 0.43 0.43 0.40 0.34 0.28 0.29 0.30 0.27 0.27 0.28 0.28 0.27 0.27 0.26 0.25 0.26 0.25 0.23
1.05 1.02 0.98 0.97 0.97 0.97 0.92 0.95 1.00 0.87 0.93 0.88 0.76 0.73 0.66 0.62 0.61 0.56 0.52 0.49 0.45 0.43 0.44 0.45 0.45 0.45 0.42 0.39 0.33 0.34 0.31 0.31 0.29 0.30 0.28 0.30 0.28 0.29 0.31 0.29 0.31 0.26 0.23
1.06 1.05 1.00 0.96 0.95 0.96 0.99 0.99 0.97 0.86 0.90 0.84 0.76 0.68 0.64 0.56 0.55 0.52 0.52 0.47 0.45 0.43 0.39 0.44 0.48 0.46 0.44 0.41 0.39 0.34 0.33 0.30 0.28 0.34 0.29 0.29 0.30 0.28 0.30 0.30 0.27 0.25 0.23
1.09 1.02 1.01 1.01 0.98 1.01 1.02 0.96 0.94 0.93 0.91 0.87 0.71 0.59 0.60 0.56 0.55 0.54 0.51 0.47 0.40 0.40 0.40 0.43 0.46 0.47 0.46 0.44 0.39 0.35 0.35 0.33 0.31 0.33 0.29 0.27 0.31 0.28 0.30 0.29 0.29 0.26 0.24
1.08 1.07 1.03 1.00 0.95 0.92 0.96 0.97 1.02 0.90 0.94 0.77 0.64 0.62 0.60 0.56 0.54 0.54 0.55 0.47 0.41 0.39 0.39 0.46 0.46 0.47 0.49 0.45 0.40 0.37 0.38 0.36 0.35 0.33 0.33 0.26 0.32 0.29 0.31 0.32 0.31 0.29 0.24
1.08 1.05 1.00 0.95 0.90 0.94 0.97 0.99 0.88 0.82 0.75 0.66 0.63 0.63 0.62 0.58 0.59 0.55 0.57 0.51 0.47 0.46 0.47 0.47 0.46 0.50 0.46 0.44 0.40 0.37 0.34 0.34 0.32 0.33 0.36 0.31 0.31 0.29 0.30 0.30 0.32 0.29 0.28
0.99 0.91 0.85 0.89 0.92 0.90 0.91 0.83 0.74 0.69 0.63 0.60 0.62 0.63 0.64 0.62 0.57 0.55 0.57 0.54 0.52 0.49 0.53 0.52 0.53 0.51 0.47 0.43 0.35 0.29 0.30 0.31 0.33 0.32 0.36 0.29 0.30 0.29 0.26 0.31 0.32 0.32 0.30
Wind_Speed
4 3 3 2 2 2 2 1 1 1 2 3 4 6 7 8 9 10 11 12 13 14 15 16 16 16 15 15 14 14 14 14 14 14 14 15 15 15 16 17 18 20 22
5 4 4 3 3 2 2 2 1 0 1 2 4 5 6 8 9 10 11 13 14 15 16 16 17 16 16 16 16 15 15 14 14 15 14 15 15 16 16 16 16 17 20
6 5 5 4 4 3 3 3 2 2 1 2 3 5 6 8 9 10 11 12 14 15 16 17 18 18 18 17 17 17 16 16 15 15 15 15 15 16 16 16 16 16 17
7 6 6 6 5 4 4 4 4 3 3 3 4 5 7 8 9 10 12 13 15 16 17 19 19 19 19 19 19 18 17 17 16 16 16 16 16 16 16 16 16 16 17
8 8 7 7 6 6 6 6 5 5 4 4 5 6 7 8 9 11 13 14 15 17 18 19 20 20 21 21 20 19 19 18 17 17 16 16 16 16 17 16 16 17 16
9 9 8 8 7 7 7 7 7 6 6 5 6 7 9 10 11 12 14 15 16 18 19 20 20 22 22 22 21 20 19 19 18 17 17 17 16 17 17 17 17 17 18
10 9 9 8 8 8 8 7 7 7 6 7 7 9 10 11 13 14 15 16 17 18 20 21 22 22 22 22 22 22 20 19 18 18 18 17 17 17 17 18 18 18 18
11 10 10 9 9 8 8 8 8 8 8 8 9 10 12 13 14 15 16 17 18 19 21 22 22 23 24 24 23 22 21 20 19 18 18 17 17 17 17 18 18 18 19
12 11 11 10 10 10 9 9 9 9 9 10 12 13 13 14 13 16 17 18 19 20 22 22 23 24 24 24 23 22 21 20 19 18 18 17 17 17 17 18 18 18 19
13 12 12 11 10 10 10 10 10 10 10 11 12 14 14 15 15 16 17 19 20 21 23 23 24 24 24 24 23 22 21 20 19 18 18 17 17 17 17 17 18 19 19
14 13 12 12 11 11 11 11 11 11 12 12 13 13 15 16 17 18 19 19 21 22 23 24 24 24 24 23 23 22 21 19 19 18 18 17 17 17 17 18 18 18 19
15 14 13 12 12 11 12 12 12 13 13 14 15 15 16 16 17 18 20 21 23 22 24 24 24 23 23 23 23 22 21 20 19 18 17 17 17 18 18 18 18 18 19
17 16 15 14 13 13 13 13 13 14 15 16 16 17 18 18 19 20 21 23 23 24 24 24 24 23 23 22 21 21 20 19 19 18 18 18 18 18 18 19 18 19 19
19 18 17 16 16 15 15 15 15 15 16 17 18 19 20 20 21 22 23 24 24 26 25 24 23 23 22 20 20 21 19 20 19 18 18 18 18 18 18 18 19 19 19
21 20 20 19 18 17 17 17 18 18 19 19 19 21 21 22 23 24 24 25 26 26 25 24 24 22 21 19 19 21 20 19 19 17 17 17 18 18 18 18 19 19 20
23 22 21 20 20 19 19 19 19 19 20 20 21 22 23 24 25 25 25 26 26 26 26 24 23 21 21 20 20 20 20 20 18 17 17 17 18 18 18 19 19 20 20
25 24 23 22 21 21 21 21 21 22 22 22 23 23 24 25 25 26 27 27 27 26 26 26 23 22 22 21 20 20 20 20 18 18 18 18 18 17 18 18 19 20 21
26 26 25 24 24 23 22 23 23 24 25 25 25 25 27 26 27 29 29 28 28 27 27 26 23 22 22 22 21 20 19 19 19 19 18 18 17 17 17 18 18 19 20
28 28 27 26 26 25 25 26 25 26 26 26 27 28 29 29 30 30 30 29 30 28 28 27 25 25 24 23 22 21 21 21 20 19 19 18 17 17 18 18 18 18 19
30 29 29 28 28 28 27 27 27 28 28 29 30 30 32 32 32 32 31 31 31 30 29 28 27 28 26 24 23 22 21 21 21 20 19 18 19 19 18 18 17 18 18
32 31 30 29 28 28 29 28 30 30 30 32 33 34 34 34 34 33 33 32 32 32 31 31 30 29 27 25 24 22 21 22 21 20 20 19 19 19 18 18 17 17 19
33 31 30 30 30 30 32 32 33 32 33 34 34 35 35 36 35 35 34 34 33 33 32 31 32 30 30 27 25 23 24 22 22 22 21 20 20 19 18 18 18 19 20
31 31 31 32 33 35 34 34 34 34 36 36 36 36 37 37 37 37 38 37 36 35 33 34 34 31 29 26 26 25 24 23 23 23 22 22 21 19 19 19 19 20 20
30 31 32 33 35 35 36 36 37 37 36 37 38 39 40 40 41 40 39 40 39 36 35 34 33 31 30 28 26 25 24 25 25 25 24 23 21 21 21 21 22 21 21
30 31 32 33 34 35 36 36 37 37 38 39 39 41 42 43 42 40 40 37 37 34 32 32 31 30 27 26 25 26 26 27 26 26 25 24 22 22 22 23 21 22 23
28 28 29 30 31 31 32 34 35 36 38 39 41 43 43 44 42 43 40 40 37 33 30 29 28 28 27 28 29 30 30 30 29 27 26 24 23 23 22 22 22 25 24
Wind_Direction
221 226 239 253 259 269 291 312 86 72 51 35 24 18 12 8 5 1 0 358 354 350 347 344 341 338 335 329 323 314 306 298 294 288 279 272 269 265 261 258 255 249 245
227 232 241 244 251 266 264 239 209 185 23 11 7 5 1 359 357 357 353 354 350 348 346 344 340 336 333 328 323 316 309 303 295 287 282 277 270 265 262 260 257 253 247
233 235 240 244 249 258 250 227 220 236 284 331 341 344 346 348 349 349 349 348 350 348 344 343 340 336 331 327 322 317 310 303 296 290 281 277 273 267 262 260 257 254 248
240 240 241 241 244 248 247 235 236 249 272 298 314 325 331 335 337 338 339 338 337 337 339 339 336 335 331 326 320 315 309 304 297 290 283 276 272 268 264 258 256 254 250
241 243 242 243 246 248 247 241 242 251 263 284 301 311 318 322 324 328 330 331 332 331 331 331 332 331 329 325 321 313 308 303 297 290 283 277 272 266 262 259 255 252 251
241 241 243 244 248 248 247 242 242 251 264 280 296 304 309 313 314 318 321 323 325 326 326 326 323 325 327 325 320 315 307 303 296 289 283 277 272 267 262 258 255 253 250
238 240 243 247 250 249 248 243 244 251 265 277 291 300 305 307 309 312 315 317 320 321 322 323 322 322 320 323 320 315 308 301 296 288 283 277 272 267 262 258 255 253 250
236 241 244 247 249 250 247 245 248 256 267 273 291 294 302 304 305 308 312 314 316 317 319 320 320 321 319 317 315 314 307 300 294 288 283 277 272 267 262 258 255 252 249
237 242 244 248 249 250 247 246 253 259 269 279 288 296 302 305 302 307 309 310 313 314 316 317 318 319 319 316 314 311 308 299 293 288 283 277 272 267 264 259 255 252 249
237 240 244 247 249 249 249 250 255 264 277 281 288 292 297 304 305 307 306 309 311 312 313 313 315 317 317 316 314 311 307 300 294 288 282 278 273 267 264 260 256 252 250
238 240 243 245 247 250 250 253 258 266 277 285 287 295 297 299 300 303 307 307 310 311 313 313 313 315 316 315 313 310 306 301 295 289 283 278 273 268 264 260 257 254 251
239 240 242 244 246 251 254 257 261 270 277 283 288 291 294 299 301 302 304 307 311 311 312 311 312 314 316 315 313 309 305 301 295 289 284 277 273 269 264 261 257 254 252
239 241 242 245 248 253 257 262 267 273 278 283 287 291 293 295 298 300 303 306 309 310 311 309 309 311 313 313 313 312 305 301 296 289 283 278 275 270 266 260 257 255 253
242 242 243 247 251 255 260 264 269 275 282 285 288 291 293 292 297 299 301 303 305 305 308 308 307 306 310 311 315 315 306 302 298 290 284 279 276 272 265 261 258 255 253
243 243 244 249 253 257 261 267 273 274 281 286 288 293 291 293 296 298 300 300 300 303 304 305 303 301 302 305 311 316 311 304 299 293 286 281 278 273 267 262 259 256 254
244 244 247 250 254 258 262 268 275 275 280 286 290 291 291 294 295 296 296 299 298 298 301 304 300 296 296 299 305 313 314 307 296 292 289 285 280 275 269 264 260 258 255
244 245 248 251 254 261 265 269 272 277 280 284 288 292 293 293 293 295 296 297 296 296 297 300 295 292 289 292 300 307 312 313 298 292 290 289 282 276 271 267 262 258 255
245 246 249 252 255 262 264 272 270 278 279 282 285 289 292 292 292 294 294 294 293 294 294 293 291 287 284 286 293 300 307 311 307 295 292 288 282 279 273 269 264 259 256
246 247 250 252 257 260 267 271 273 279 278 283 287 286 291 290 290 291 292 293 293 292 291 291 286 284 280 281 286 291 298 305 306 297 293 286 284 282 276 271 265 260 257
247 248 250 255 258 259 267 272 272 278 276 282 285 287 289 288 289 288 290 290 291 290 288 285 283 282 278 276 278 284 290 299 304 301 291 286 284 282 276 272 265 259 258
248 250 252 255 259 261 268 268 274 278 276 280 285 286 288 288 287 286 289 288 287 287 286 282 281 281 274 271 272 276 286 292 299 300 293 288 284 282 275 271 264 259 263
246 250 252 256 259 265 268 268 276 278 277 281 283 284 286 288 287 285 286 289 288 284 284 283 279 278 271 268 268 275 280 285 291 297 294 288 284 280 275 270 265 266 268
246 251 255 260 264 265 269 270 275 279 278 280 282 283 285 288 286 286 284 282 283 282 281 284 278 274 273 270 269 273 274 279 286 291 294 287 283 276 274 272 269 269 269
251 256 261 263 266 269 269 270 271 279 276 279 280 282 284 286 286 286 286 281 280 279 278 282 277 272 267 270 268 268 271 279 284 284 286 286 281 277 275 274 272 268 269
256 261 264 266 268 271 270 271 272 276 279 279 281 283 285 286 285 284 284 282 278 275 274 279 276 266 263 264 265 271 274 278 280 281 281 283 279 278 276 275 268 268 273
258 262 266 269 270 272 273 273 273 277 279 282 283 286 285 286 281 284 282 280 274 267 269 279 271 261 265 267 269 272 275 274 275 277 277 278 276 279 275 273 269 275 273